Regional Weather Roundup
Issued by NWS

Home | Current Version | Previous Version | Text Only | Print | Product List | Glossary Off
Versions: 1 2 3 4 5 6 7 8 9 10 11 12 13 14 15 16 17 18 19 20 21 22 23 24 25 26 27 28 29 30 31 32 33 34 35 36 37 38 39 40 41 42 43 44 45 46 47 48 49 50

000
ASUS43 KDTX 200810
RWRMI
MICHIGAN HOURLY REGIONAL WEATHER ROUNDUP
NATIONAL WEATHER SERVICE DETROIT/PONTIAC MI
300 AM EST MON NOV 20 2017

NOTE: "FAIR" INDICATES FEW OR NO CLOUDS BELOW 12,000 FEET WITH NO
SIGNIFICANT WEATHER AND/OR OBSTRUCTION TO VISIBILITY.

MIZ047>049-052>055-059>063-066>070-074>076-081>083-200900-
SOUTHEAST LOWER MICHIGAN

CITY           SKY/WX    TMP DP  RH WIND       PRES   REMARKS
ADRIAN         CLEAR     27  22  81 W7        30.06R WCI  19
ALMA           CLOUDY    30  25  83 SW3       29.96S
ANN ARBOR      PTCLDY    28  22  78 SW9       30.02R WCI  19
BAD AXE        MOCLDY    26  20  80 SW7       29.95S WCI  18
CARO           CLOUDY    28  22  79 SW6       29.96S WCI  21
DETROIT CITY   CLOUDY    30  23  75 SW8       30.03R WCI  22
DETROIT        CLOUDY    30  23  75 SW12      30.02S WCI  20
FLINT          PTCLDY    28  22  78 SW8       29.99R WCI  20
GROSSE ILE     PTCLDY    30  24  77 SW8       30.03S WCI  23
HILLSDALE      CLEAR     28  23  80 SW7       30.02R WCI  21
HOWELL         CLEAR     29  25  83 SW6       30.00R WCI  23

CITY           SKY/WX    TMP DP  RH WIND       PRES   REMARKS
JACKSON        CLOUDY    29  22  75 SW9       30.02R WCI  20
LAMBERTVILLE   CLEAR     31  23  72 SW7       30.07R WCI  24
LANSING        CLOUDY    30  24  78 SW13      29.99S WCI  20
LAPEER         CLOUDY    30  22  74 W6        29.98R WCI  24
MASON          MOCLDY    31  25  77 SW6       30.00S WCI  25
MONROE         MOCLDY    31  24  74 SW10G16   30.05R WCI  22
MT. CLEMENS    CLOUDY    30  23  77 SW7       30.00R WCI  23
PONTIAC        CLOUDY    28  22  78 SW6       29.98R WCI  22
PORT HOPE        N/A     30  21  69 W7        29.93R WCI  23
PORT HURON     CLOUDY    27  19  74 SW5       29.99F WCI  21
TRI CITIES     CLOUDY    30  24  78 SW7       29.97R WCI  23
MIDLAND        CLOUDY    29  23  76 SW5       29.95S WCI  24
TROY           CLOUDY    31  24  73 SW7       30.03R WCI  25
SAGINAW HB     CLOUDY    30  25  80 SW8       29.96F WCI  23
$$
MIZ043>046-050>051-056>058-064>065-071>073-077>080-200900-
SOUTHWEST LOWER MICHIGAN

CITY           SKY/WX    TMP DP  RH WIND       PRES   REMARKS
BATTLE CREEK   CLEAR     27  23  85 S7        30.02R WCI  19
BENTON HARBOR  CLEAR     31  24  75 S9        30.02F WCI  23
BIG RAPIDS     CLOUDY    30  23  75 CALM      29.92S
COLDWATER      CLEAR     28  22  81 SW9       30.04R WCI  19
FREMONT        CLOUDY    32  28  85 SW3       29.94S
HOLLAND        MOCLDY    38  30  73 W15       29.98F WCI  29
GRAND RAPIDS   CLOUDY    34  29  82 S6        29.97S WCI  29
IONIA          CLOUDY    32  26  77 SW7       29.97S WCI  26
KALAMAZOO      CLEAR     28  21  75 SW10      30.02S WCI  19
LUDINGTON      CLOUDY    37  28  68 W8        29.91F WCI  31
MARSHALL       CLOUDY    28  23  80 SW12      30.02R WCI  18
MOUNT PLEASANT CLOUDY    32  23  68 SW5       29.93F WCI  27
MUSKEGON       CLOUDY    40  29  64 SW14G23   29.95F WCI  32
SOUTH HAVEN    CLEAR     39  29  67 SW12G21   30.00F WCI  32
$$
MIZ016>042-200900-
NORTHERN LOWER MICHIGAN

CITY           SKY/WX    TMP DP  RH WIND       PRES   REMARKS
ALPENA         CLOUDY    29  21  72 SW9       29.87S WCI  20
BEAVER ISLAND  CLOUDY    32  21  64 W8        29.87S WCI  24
BELLAIRE       CLOUDY    33  26  76 S8        29.89S WCI  26
CADILLAC       CLOUDY    28  22  80 SW6       29.88S WCI  21
CHARLEVOIX     CLOUDY    35  25  67 W13       29.89S WCI  26
FRANKFORT      CLOUDY    38  28  65 W9        29.89S WCI  32
GAYLORD        CLOUDY    26  21  81 SW8       29.84R WCI  18
GRAYLING       CLOUDY    25  20  83 SW3       29.88S
HARBOR SPRINGS CLOUDY    32  23  68 W10       29.86R WCI  24
MANISTEE       CLOUDY    37  27  67 W9        29.90S WCI  30
OSCODA         PTCLDY    24  18  78 SW8       29.91S WCI  14
PELLSTON       CLOUDY    30  22  72 W10       29.86R WCI  21
ROGERS CITY    CLOUDY    29  19  67 SW3       29.87S
TRAVERSE CITY  CLOUDY    31  22  69 S3        29.89R
$$
MIZ007>008-015-200900-
EASTERN UPPER MICHIGAN

CITY           SKY/WX    TMP DP  RH WIND       PRES   REMARKS
KINROSS        CLOUDY    25  18  74 W9        29.82S WCI  15
MACKINAC ISLAN CLOUDY    31  20  64 W10       29.84R WCI  22
NEWBERRY       CLOUDY    24  20  84 SW9       29.82S WCI  14
S. S. MARIE    MIX PCPN  27  19  72 SW8       29.81R WCI  19
MUNISING         N/A     26  19  74 SW12      29.83F WCI  16
$$
MIZ004>006-011>014-085-200900-
CENTRAL UPPER MICHIGAN

CITY           SKY/WX    TMP DP  RH WIND       PRES   REMARKS
MANISTIQUE     CLOUDY    25  12  57 W3        29.85S
ESCANABA       PTCLDY    19  18  95 CALM      29.86S
MENOMINEE      PTCLDY    28  20  71 SW5       29.87F WCI  23
SAWYER-GWINN   PTCLDY    19  17  91 S5        29.81F WCI  12
$$
MIZ001>003-009>011-084-200900-
WESTERN UPPER MICHIGAN

CITY           SKY/WX    TMP DP  RH WIND       PRES   REMARKS
IRON MOUNTAIN  PTCLDY    20  15  81 CALM      29.80F
HOUGHTON       CLOUDY    26  21  81 S6        29.77S WCI  19
COPPER HARBOR    N/A     28  18  66 CALM      29.80S
IRONWOOD       CLEAR    N/A N/A N/A S7        29.77F
$$

ABBREVIATIONS USED IN REMARKS
   TC - TEMPERATURE IN CELSIUS
  WCI - WIND CHILL INDEX
   HX - HEAT INDEX
  VSB - VISIBILITY





USA.gov is the U.S. government's official web portal to all federal, state and local government web resources and services.